When you browse on this site, cookies collect data to enhance your experience and personalize the content and advertising you see.
Visit our Privacy Policy to learn more. By continuing to use the site, you agree to this use of cookies and data.
  • în România
  • Lista ţărilor
  • Pe 7 zile
  • Temperatura apei
  • Meteo pe hartă
  • Widget-uri
  • user-avatar
    Intrare

    Meteo pe oră la Kurytyba

    Astăzi, 31 Mai, Duminică

    Timp Temperatura Precipitaţii Vânt Presiune Umiditate
    00:00 +13°C° 0 mm 1 m/s 682 mmHg 83%
    01:00 +12°C° 0 mm 1 m/s 681 mmHg 84%
    02:00 +12°C° 0 mm 1 m/s 681 mmHg 85%
    03:00 +12°C° 0 mm 1 m/s 681 mmHg 87%
    04:00 +11°C° 0 mm 1 m/s 681 mmHg 88%
    05:00 +11°C° 0 mm 1 m/s 681 mmHg 89%
    06:00 +11°C° 0 mm 1 m/s 681 mmHg 91%
    07:00 +12°C° 0 mm 1 m/s 682 mmHg 84%
    08:00 +14°C° 0 mm 1 m/s 682 mmHg 77%
    09:00 +15°C° 0 mm 1 m/s 683 mmHg 70%
    10:00 +18°C° 0 mm 2 m/s 683 mmHg 62%
    11:00 +20°C° 0 mm 2 m/s 683 mmHg 53%
    12:00 +23°C° 0 mm 2 m/s 683 mmHg 45%
    13:00 +23°C° 0 mm 2 m/s 683 mmHg 43%
    14:00 +24°C° 0 mm 2 m/s 682 mmHg 42%
    15:00 +24°C° 0 mm 2 m/s 681 mmHg 40%
    16:00 +22°C° 0 mm 1 m/s 681 mmHg 50%
    17:00 +20°C° 0 mm 1 m/s 681 mmHg 60%
    18:00 +18°C° 0 mm 1 m/s 680 mmHg 69%
    19:00 +18°C° 0 mm 1 m/s 681 mmHg 72%
    20:00 +18°C° 0 mm 1 m/s 681 mmHg 75%
    21:00 +16°C° 0 mm 1 m/s 681 mmHg 78%
    22:00 +16°C° 0 mm 1 m/s 681 mmHg 81%
    23:00 +15°C° 0 mm 1 m/s 681 mmHg 84%

    Mâine, 1 Iunie, Luni

    Timp Temperatura Precipitaţii Vânt Presiune Umiditate
    00:00 +15°C° 0 mm 1 m/s 681 mmHg 87%
    01:00 +15°C° 0 mm 1 m/s 681 mmHg 88%
    02:00 +15°C° 0 mm 1 m/s 680 mmHg 89%
    03:00 +15°C° 0 mm 1 m/s 680 mmHg 90%
    04:00 +15°C° 0 mm 1 m/s 680 mmHg 91%
    05:00 +15°C° 0 mm 1 m/s 680 mmHg 93%
    06:00 +14°C° 0 mm 1 m/s 680 mmHg 94%
    07:00 +16°C° 0 mm 1 m/s 681 mmHg 89%
    08:00 +18°C° 0 mm 1 m/s 681 mmHg 85%
    09:00 +19°C° 0 mm 1 m/s 682 mmHg 80%
    10:00 +19°C° 0.4 mm 1 m/s 682 mmHg 83%
    11:00 +19°C° 0.4 mm 1 m/s 682 mmHg 86%
    12:00 +17°C° 0.4 mm 2 m/s 681 mmHg 89%
    13:00 +18°C° 0.5 mm 1 m/s 681 mmHg 90%
    14:00 +18°C° 0.5 mm 1 m/s 681 mmHg 92%
    15:00 +18°C° 0.5 mm 1 m/s 681 mmHg 93%
    16:00 +18°C° 0.5 mm 1 m/s 681 mmHg 94%
    17:00 +18°C° 0.5 mm 1 m/s 681 mmHg 95%
    18:00 +18°C° 0.5 mm 1 m/s 681 mmHg 95%
    19:00 +16°C° 5 mm 1 m/s 681 mmHg 96%
    20:00 +16°C° 5 mm 1 m/s 681 mmHg 97%
    21:00 +16°C° 5 mm 1 m/s 682 mmHg 97%
    22:00 +15°C° 0.9 mm 1 m/s 682 mmHg 97%
    23:00 +15°C° 0.9 mm 1 m/s 682 mmHg 96%

    Poimâine, 2 Iunie, Marţi

    Timp Temperatura Precipitaţii Vânt Presiune Umiditate
    00:00 +14°C° 0.9 mm 2 m/s 681 mmHg 96%
    01:00 +14°C° 1.3 mm 2 m/s 681 mmHg 96%
    02:00 +14°C° 1.3 mm 2 m/s 681 mmHg 96%
    03:00 +14°C° 1.3 mm 2 m/s 680 mmHg 96%
    04:00 +14°C° 1.7 mm 2 m/s 680 mmHg 96%
    05:00 +13°C° 1.7 mm 1 m/s 680 mmHg 96%
    06:00 +13°C° 1.7 mm 1 m/s 680 mmHg 96%
    07:00 +13°C° 0.6 mm 1 m/s 681 mmHg 96%
    08:00 +13°C° 0.6 mm 1 m/s 681 mmHg 96%
    09:00 +13°C° 0.6 mm 2 m/s 682 mmHg 95%
    10:00 +14°C° 0.3 mm 1 m/s 682 mmHg 95%
    11:00 +14°C° 0.3 mm 1 m/s 682 mmHg 94%
    12:00 +15°C° 0.3 mm 1 m/s 682 mmHg 94%
    13:00 +15°C° 0.3 mm 1 m/s 681 mmHg 94%
    14:00 +15°C° 0.3 mm 1 m/s 681 mmHg 94%
    15:00 +15°C° 0.3 mm 1 m/s 681 mmHg 94%
    16:00 +14°C° 0 mm 1 m/s 681 mmHg 94%
    17:00 +14°C° 0 mm 1 m/s 681 mmHg 95%
    18:00 +14°C° 0 mm 1 m/s 681 mmHg 95%
    19:00 +13°C° 0 mm 1 m/s 681 mmHg 95%
    20:00 +13°C° 0 mm 1 m/s 682 mmHg 95%
    21:00 +13°C° 0 mm 1 m/s 682 mmHg 95%
    22:00 +13°C° 0 mm 1 m/s 682 mmHg 96%
    23:00 +13°C° 0 mm 1 m/s 682 mmHg 96%

    3 Iunie, Miercuri

    Timp Temperatura Precipitaţii Vânt Presiune Umiditate
    00:00 +12°C° 0 mm 1 m/s 682 mmHg 97%
    01:00 +12°C° 0 mm 1 m/s 682 mmHg 96%
    02:00 +13°C° 0 mm 1 m/s 681 mmHg 96%
    03:00 +13°C° 0 mm 1 m/s 681 mmHg 95%
    04:00 +13°C° 0 mm 1 m/s 682 mmHg 95%
    05:00 +13°C° 0 mm 1 m/s 682 mmHg 95%
    06:00 +13°C° 0 mm 1 m/s 682 mmHg 95%
    07:00 +13°C° 0 mm 1 m/s 683 mmHg 95%
    08:00 +13°C° 0 mm 1 m/s 683 mmHg 95%
    09:00 +13°C° 0 mm 1 m/s 684 mmHg 95%
    10:00 +14°C° 0 mm 1 m/s 684 mmHg 92%
    11:00 +15°C° 0 mm 1 m/s 684 mmHg 89%
    12:00 +15°C° 0 mm 1 m/s 684 mmHg 87%
    13:00 +16°C° 0.1 mm 1 m/s 684 mmHg 86%
    14:00 +16°C° 0.1 mm 2 m/s 683 mmHg 85%
    15:00 +16°C° 0.1 mm 2 m/s 683 mmHg 84%
    16:00 +16°C° 0.1 mm 2 m/s 683 mmHg 87%
    17:00 +15°C° 0.1 mm 2 m/s 683 mmHg 90%
    18:00 +14°C° 0.1 mm 2 m/s 683 mmHg 93%
    19:00 +14°C° 0 mm 2 m/s 684 mmHg 94%
    20:00 +14°C° 0 mm 2 m/s 684 mmHg 94%
    21:00 +14°C° 0 mm 1 m/s 684 mmHg 94%
    22:00 +14°C° 0 mm 1 m/s 684 mmHg 94%
    23:00 +14°C° 0 mm 2 m/s 685 mmHg 95%

    4 Iunie, Joi

    Timp Temperatura Precipitaţii Vânt Presiune Umiditate
    00:00 +14°C° 0 mm 2 m/s 685 mmHg 96%
    01:00 +14°C° 0 mm 2 m/s 684 mmHg 95%
    02:00 +14°C° 0 mm 1 m/s 684 mmHg 94%
    03:00 +14°C° 0 mm 1 m/s 684 mmHg 93%
    04:00 +14°C° 0 mm 1 m/s 684 mmHg 94%
    05:00 +14°C° 0 mm 1 m/s 684 mmHg 94%
    06:00 +13°C° 0 mm 1 m/s 684 mmHg 95%
    07:00 +14°C° 0 mm 1 m/s 684 mmHg 93%
    08:00 +14°C° 0 mm 1 m/s 685 mmHg 91%
    09:00 +15°C° 0 mm 1 m/s 685 mmHg 90%
    10:00 +15°C° 0.3 mm 1 m/s 685 mmHg 91%
    11:00 +15°C° 0.3 mm 2 m/s 685 mmHg 92%
    12:00 +16°C° 0.3 mm 2 m/s 685 mmHg 93%
    13:00 +16°C° 0.4 mm 2 m/s 685 mmHg 93%
    14:00 +16°C° 0.4 mm 1 m/s 684 mmHg 94%
    15:00 +16°C° 0.4 mm 1 m/s 684 mmHg 95%
    16:00 +15°C° 0.1 mm 1 m/s 684 mmHg 96%
    17:00 +15°C° 0.1 mm 2 m/s 684 mmHg 96%
    18:00 +15°C° 0.1 mm 2 m/s 684 mmHg 97%
    19:00 +15°C° 0.2 mm 1 m/s 684 mmHg 97%
    20:00 +15°C° 0.2 mm 1 m/s 684 mmHg 97%
    21:00 +15°C° 0.2 mm 1 m/s 685 mmHg 98%
    22:00 +15°C° 0.4 mm 1 m/s 685 mmHg 98%
    23:00 +15°C° 0.4 mm 1 m/s 684 mmHg 98%

    5 Iunie, Vineri

    Timp Temperatura Precipitaţii Vânt Presiune Umiditate
    00:00 +15°C° 0.4 mm 1 m/s 684 mmHg 98%
    01:00 +15°C° 0.9 mm 1 m/s 684 mmHg 98%
    02:00 +14°C° 0.9 mm 0 m/s 684 mmHg 99%
    03:00 +14°C° 0.9 mm 0 m/s 683 mmHg 99%
    04:00 +14°C° 0.4 mm 0 m/s 683 mmHg 99%
    05:00 +15°C° 0.4 mm 1 m/s 683 mmHg 99%
    06:00 +15°C° 0.4 mm 1 m/s 683 mmHg 99%
    07:00 +16°C° 0.2 mm 1 m/s 683 mmHg 98%
    08:00 +16°C° 0.2 mm 1 m/s 683 mmHg 97%
    09:00 +16°C° 0.2 mm 1 m/s 683 mmHg 97%
    10:00 +18°C° 0 mm 1 m/s 683 mmHg 94%
    11:00 +17°C° 0 mm 2 m/s 683 mmHg 91%
    12:00 +18°C° 0 mm 2 m/s 683 mmHg 89%
    13:00 +19°C° 0.1 mm 2 m/s 683 mmHg 86%
    14:00 +20°C° 0.1 mm 3 m/s 682 mmHg 83%
    15:00 +20°C° 0.1 mm 3 m/s 682 mmHg 79%
    16:00 +19°C° 0.2 mm 2 m/s 682 mmHg 84%
    17:00 +18°C° 0.2 mm 2 m/s 681 mmHg 89%
    18:00 +18°C° 0.2 mm 1 m/s 681 mmHg 93%
    19:00 +18°C° 0.9 mm 1 m/s 681 mmHg 93%
    20:00 +17°C° 0.9 mm 2 m/s 681 mmHg 94%
    21:00 +17°C° 0.9 mm 2 m/s 681 mmHg 94%
    22:00 +17°C° 1.6 mm 2 m/s 681 mmHg 94%
    23:00 +17°C° 1.6 mm 2 m/s 681 mmHg 95%
    Arată mai mult